Tracking 29892 objects as of 21-Nov-2024
HD Live streaming from Space Station
objects crossing your sky now

FENGYUN 1C DEB

Track FENGYUN 1C DEB now!
10-day predictions


NORAD ID: 31427
Int'l Code: 1999-025BTP
Perigee: 715.7 km
Apogee: 772.4 km
Inclination: 98.7 °
Period: 99.5 minutes
Semi major axis: 7115 km
RCS: 0.0039 m2 (small)
Launch date: May 10, 1999
Source: People's Republic of China (PRC)
Launch site: Taiyaun Space Center, China (TSC)

Note: This is SATELLITE DEBRIS
Your satellite tracking list
Your tracking list is empty




NASA's NSSDC Master Catalog

Two Line Element Set (TLE):
1 31427U 99025BTP 24324.20606426  .00012646  00000-0  34810-2 0  9990
2 31427  98.6727  54.3716 0039823 123.6613 236.8387 14.46566006912772
Source of the keplerian elements: AFSPC